[[{"header":{"parameterUnit":"m.s-1","parameterCategory":1,"la1":30.2991,"la2":30.254,"lo1":-89.0895,"lo2":-89.0444,"dy":0.0017,"dx":0.0017,"nx":28,"ny":28,"refTime":"2024-05-06T09:00:00:Z","depth":0,"parameterNumber":2,"parameterNumberName":"U-component_of_WINDS"},"data":[0,0,0,0,0,0,0,0,0,0,0,0,0,0,0,0,0,0,0,0,0,0,0,0,0,0,0,0,0,0,0,0,0,0,0,0,0,0,0,0,0,0,0,0,0,0,0,0,0,0,0,0,0,0,0,0,0,0,0.1722,0.1722,0,0.172,0.172,0.172,0.171,0.171,0.171,0.171,0.1709,0.1709,0.1709,0,0,0,0,0,0,0,0,0,0,0,0,0,0.1717,0.1717,0.1722,0.1722,0.1722,0.172,0.172,0.172,0.171,0.171,0.171,0.171,0.1709,0.1709,0.1709,0,0,0,0,0,0,0,0,0,0,0,0,0,0.1718,0.1717,0.1722,0.1717,0.1716,0.172,0.172,0.172,0.171,0.171,0.171,0.1709,0.1708,0.1709,0.1709,0.1717,0,0,0.171,0.171,0,0,0,0,0,0,0,0,0.1718,0.1718,0.1718,0.1717,0.1717,0.1715,0.1718,0.1719,0.171,0.1713,0.171,0.1709,0.1711,0.1711,0.1711,0.1717,0.1717,0.171,0.171,0.171,0.171,0,0,0,0,0,0,0,0.1717,0.1718,0.1721,0.1718,0.1717,0.1714,0.1714,0.1718,0.1714,0.1712,0.1712,0.1712,0.1711,0.1711,0.1711,0.1717,0.171,0.171,0.171,0.171,0.1728,0.1729,0,0,0,0,0,0,0.1718,0.1718,0.1721,0.1721,0.1716,0.1715,0.1715,0.1716,0.1714,0.1713,0.1712,0.1711,0.1711,0.1711,0.1711,0.172,0.171,0.171,0.1711,0.1728,0.1728,0.1729,0,0,0,0,0,0,0.1718,0.1719,0.1721,0.1719,0.1719,0.1715,0.1717,0.1716,0.1716,0.1713,0.1713,0.1713,0.1711,0.1711,0.1716,0.172,0.1711,0.1711,0.1728,0.1728,0.1728,0.1738,0,0,0,0,0,0,0.1718,0.1719,0.1722,0.1719,0.1719,0.1726,0.1717,0.1716,0.1717,0.1716,0.1714,0.1714,0.171,0.1715,0.1716,0.172,0.1711,0.1727,0.1728,0.1728,0.1737,0.1739,0.174,0,0,0,0,0,0.1718,0.1725,0.1722,0.1723,0.1724,0.1726,0.1726,0.1722,0.1717,0.172,0.1718,0.1714,0.1719,0.1716,0.1716,0.1721,0.1727,0.1728,0.1728,0.1737,0.1738,0.174,0,0,0,0,0,0,0.1729,0.1725,0.1721,0.1728,0.1727,0.1724,0.1728,0.1724,0.1725,0.1724,0.1719,0.1718,0.1723,0.1723,0.1719,0.1728,0.1722,0.1723,0.1728,0.173,0.1731,0.1731,0.1711,0,0,0,0,0,0.1732,0.1734,0.1731,0.1737,0.1737,0.1732,0.1733,0.173,0.1729,0.1729,0.1727,0.1726,0.1728,0.1729,0.173,0.1737,0.1736,0.174,0.1741,0.1742,0.1743,0.1745,0.1747,0.1731,0.1731,0.1731,0,0,0.1739,0.1737,0.1739,0.1739,0.1738,0.174,0.1732,0.1735,0.1736,0.1729,0.1733,0.1732,0.173,0.1736,0.1738,0.1735,0.1747,0.1743,0.1744,0.1744,0.1746,0.1748,0.1749,0.1731,0.1731,0.1731,0,0,0.1752,0.1751,0.1756,0.1754,0.1753,0.175,0.1751,0.1748,0.1746,0.175,0.1744,0.1745,0.1748,0.1747,0.1747,0.1758,0.1754,0.1759,0.1766,0.1768,0.1769,0.177,0.1773,0.1775,0.176,0.176,0.176,0,0.1761,0.1764,0.1759,0.1761,0.1761,0.1754,0.1758,0.1757,0.1756,0.1756,0.1753,0.1755,0.1754,0.1758,0.176,0.1761,0.1761,0.1759,0.1769,0.177,0.1771,0.1774,0.1775,0.176,0.176,0.176,0.176,0,0.1774,0.1776,0.178,0.1778,0.1778,0.1782,0.1776,0.1777,0.1773,0.1771,0.1774,0.1772,0.1772,0.1773,0.177,0.1776,0.1774,0.177,0.1765,0.1774,0.1776,0.1777,0.1761,0.1761,0.1761,0.176,0,0,0.1795,0.1789,0.1791,0.1789,0.1786,0.1787,0.179,0.1789,0.1789,0.1789,0.179,0.1792,0.1788,0.1787,0.1784,0.1786,0.1793,0.1782,0.1781,0.1783,0.1799,0.1802,0.1803,0.1791,0.1791,0.1791,0.1799,0,0.1807,0.1811,0.1806,0.1811,0.1812,0.1804,0.1806,0.1804,0.1801,0.1802,0.1798,0.1799,0.1794,0.1794,0.1795,0.1792,0.1797,0.1792,0.1792,0.1792,0.1792,0.1805,0.1808,0.1816,0.18,0.18,0.1801,0,0.1822,0.182,0.1825,0.182,0.182,0.1822,0.1821,0.1821,0.1818,0.1816,0.1815,0.181,0.1812,0.1806,0.1808,0.1805,0.1805,0.1803,0.1803,0.1803,0.1797,0.1804,0.1819,0.182,0.1802,0.1802,0.1802,0,0.1835,0.1835,0.1837,0.1836,0.1831,0.1832,0.183,0.1827,0.1826,0.1825,0.1824,0.1823,0.1823,0.1822,0.1817,0.1813,0.1819,0.1813,0.1817,0.1817,0.1818,0.1818,0.1832,0.1819,0.1819,0.1819,0.1819,0,0.1849,0.1852,0.1843,0.1845,0.1847,0.1841,0.1844,0.1841,0.1838,0.1838,0.1832,0.1833,0.1826,0.1826,0.1822,0.1824,0.1824,0.1822,0.182,0.1822,0.1822,0.1821,0.1821,0.1819,0.1819,0.1819,0.1819,0,0.1865,0.1859,0.1861,0.1855,0.1854,0.1856,0.1851,0.1852,0.1848,0.1848,0.1848,0.1842,0.1841,0.1836,0.1835,0.1832,0.1835,0.1833,0.1836,0.1835,0.1838,0.1838,0.1852,0.1853,0.184,0.184,0.184,0,0.1873,0.1875,0.1869,0.1869,0.1867,0.1866,0.1865,0.1859,0.1858,0.1854,0.1855,0.1854,0.1852,0.1851,0.1847,0.1845,0.1843,0.1848,0.1843,0.1844,0.1842,0.1842,0.1841,0.1849,0.1849,0.1849,0.1849,0,0.1889,0.1886,0.1885,0.1882,0.1881,0.1879,0.1876,0.1876,0.1869,0.1868,0.1867,0.1865,0.1863,0.1861,0.1859,0.1856,0.1851,0.1851,0.1852,0.1853,0.1854,0.1853,0.1838,0.1851,0.1851,0.1851,0.185,0.185,0.1901,0.1902,0.1897,0.1896,0.1893,0.189,0.189,0.1886,0.1885,0.1882,0.1878,0.1877,0.1873,0.1869,0.1867,0.1865,0.1863,0.1864,0.1864,0.1864,0.1865,0.1854,0.1865,0.1865,0.1865,0.1865,0.1865,0,0.1916,0.1912,0.1911,0.1907,0.1905,0.19,0.1897,0.1896,0.1895,0.1891,0.1889,0.1887,0.1885,0.188,0.1878,0.1878,0.1875,0.1877,0.1877,0.1876,0.1868,0.1867,0.1879,0.1879,0.1879,0.1879,0.1879,0.1879,0.1923,0.1924,0.192,0.1919,0.1915,0.1914,0.1912,0.1909,0.1906,0.1904,0.1902,0.1898,0.1894,0.1891,0.1889,0.1887,0.1886,0.1889,0.1887,0.1879,0.1877,0.1876,0.1875,0.1889,0.1889,0.1895,0.1895,0.1895]},{"header":{"parameterUnit":"m.s-1","parameterCategory":1,"la1":30.2991,"la2":30.254,"lo1":-89.0895,"lo2":-89.0444,"dy":0.0017,"dx":0.0017,"nx":28,"ny":28,"refTime":"2024-05-06T09:00:00:Z","depth":0,"parameterNumber":3,"parameterNumberName":"V-component_of_WINDS"},"data":[0,0,0,0,0,0,0,0,0,0,0,0,0,0,0,0,0,0,0,0,0,0,0,0,0,0,0,0,0,0,0,0,0,0,0,0,0,0,0,0,0,0,0,0,0,0,0,0,0,0,0,0,0,0,0,0,0,0,6.454,6.4541,0,6.4621,6.4622,6.4623,6.4558,6.4555,6.4553,6.455,6.4627,6.4631,6.4636,0,0,0,0,0,0,0,0,0,0,0,0,0,6.432,6.4325,6.454,6.4541,6.4542,6.4621,6.4622,6.4623,6.4559,6.4555,6.4552,6.4549,6.4625,6.463,6.4636,0,0,0,0,0,0,0,0,0,0,0,0,0,6.441,6.4326,6.454,6.4519,6.4518,6.4621,6.4622,6.4624,6.4559,6.4555,6.4551,6.4547,6.4623,6.463,6.4637,6.4762,0,0,6.4658,6.4661,0,0,0,0,0,0,0,0,6.4405,6.4418,6.4521,6.4521,6.452,6.4576,6.4573,6.467,6.456,6.4544,6.455,6.4545,6.4612,6.462,6.4644,6.4765,6.4768,6.4658,6.4663,6.4665,6.4667,0,0,0,0,0,0,0,6.4399,6.4414,6.4572,6.4523,6.4522,6.4503,6.4512,6.4591,6.46,6.4545,6.454,6.4551,6.4611,6.4638,6.4645,6.477,6.4658,6.4664,6.4669,6.4671,6.4994,6.4999,0,0,0,0,0,0,6.4396,6.4409,6.4569,6.4574,6.4451,6.4511,6.452,6.4562,6.4599,6.4601,6.4555,6.4548,6.4628,6.4637,6.4648,6.4795,6.4665,6.4672,6.4676,6.499,6.4995,6.5,0,0,0,0,0,0,6.4391,6.4411,6.4566,6.4491,6.4509,6.4519,6.4566,6.4566,6.4592,6.4606,6.4607,6.458,6.4625,6.4638,6.4734,6.4797,6.4675,6.4681,6.4985,6.4992,6.4998,6.5091,0,0,0,0,0,0,6.4385,6.4409,6.4459,6.4492,6.4513,6.4653,6.457,6.457,6.4605,6.4597,6.4631,6.4632,6.4623,6.4724,6.4741,6.4804,6.4687,6.4979,6.4988,6.4996,6.5083,6.51,6.5115,0,0,0,0,0,6.4378,6.4481,6.4462,6.4481,6.4576,6.4657,6.4669,6.4658,6.461,6.4658,6.4668,6.4631,6.4787,6.4734,6.4752,6.4819,6.4975,6.4985,6.4995,6.5075,6.5097,6.5115,0,0,0,0,0,0,6.4452,6.4485,6.4464,6.4582,6.4618,6.4646,6.4707,6.4681,6.4729,6.4719,6.4701,6.4709,6.481,6.4824,6.4764,6.494,6.4873,6.4887,6.4928,6.4948,6.4965,6.4958,6.4692,0,0,0,0,0,6.4483,6.4548,6.4572,6.4674,6.4693,6.4697,6.4732,6.472,6.4756,6.477,6.4786,6.4819,6.4875,6.4913,6.4965,6.5084,6.5089,6.5139,6.5155,6.5169,6.5181,6.5243,6.5264,6.5033,6.5033,6.5033,0,0,6.4545,6.4571,6.4614,6.4689,6.4716,6.4781,6.471,6.4783,6.4831,6.478,6.4871,6.4884,6.492,6.5028,6.5076,6.5042,6.5246,6.5182,6.5192,6.5197,6.5255,6.5277,6.5296,6.504,6.5039,6.5038,0,0,6.4694,6.4721,6.4808,6.4836,6.4877,6.4879,6.49,6.4933,6.494,6.5032,6.4995,6.505,6.5148,6.5175,6.5201,6.5359,6.5326,6.5376,6.5462,6.5522,6.554,6.5556,6.5611,6.5631,6.5388,6.5389,6.5389,0,6.4766,6.4866,6.4855,6.4931,6.4964,6.4923,6.5009,6.5036,6.5092,6.5114,6.5077,6.5198,6.522,6.5332,6.537,6.5394,6.5415,6.5372,6.5539,6.5555,6.557,6.5621,6.5642,6.5394,6.5394,6.5393,6.5393,0,6.4952,6.5022,6.5087,6.5144,6.5184,6.5265,6.5263,6.5305,6.529,6.5295,6.5387,6.5412,6.5468,6.5494,6.5479,6.5604,6.5582,6.5542,6.5474,6.5598,6.5646,6.5666,6.5403,6.54,6.5399,6.5397,0,0,6.5149,6.5199,6.5223,6.5248,6.529,6.5343,6.542,6.5477,6.5512,6.5552,6.5614,6.5698,6.5662,6.5692,6.5679,6.5733,6.5853,6.5686,6.5686,6.5715,6.599,6.6019,6.6042,6.5833,6.5836,6.5839,6.5986,0,6.5298,6.5436,6.5428,6.5556,6.5619,6.5581,6.5648,6.5679,6.5686,6.5738,6.5744,6.5803,6.5752,6.5769,6.582,6.5828,6.5908,6.5817,6.5888,6.5891,6.588,6.6067,6.6098,6.6236,6.6005,6.6009,6.6011,0,6.5491,6.5539,6.5674,6.5706,6.5732,6.5793,6.5844,6.5895,6.5929,6.593,6.5964,6.5942,6.6017,6.5948,6.605,6.5989,6.6017,6.6025,6.603,6.6035,6.5958,6.6076,6.628,6.63,6.6041,6.6038,6.6036,0,6.5619,6.5718,6.5811,6.5833,6.5873,6.5917,6.5935,6.5965,6.5999,6.6043,6.6064,6.6116,6.6143,6.6182,6.6173,6.6125,6.6277,6.6208,6.6277,6.6278,6.631,6.6308,6.652,6.6331,6.6331,6.633,6.633,0,6.5786,6.587,6.5869,6.5927,6.6018,6.6007,6.6097,6.6109,6.6137,6.6193,6.6163,6.6216,6.6202,6.6255,6.6248,6.6332,6.6345,6.6346,6.6343,6.6348,6.6348,6.6366,6.6355,6.6336,6.6335,6.6334,6.6333,0,6.5945,6.5948,6.6047,6.6077,6.6086,6.6153,6.6177,6.6229,6.6233,6.6305,6.6321,6.6327,6.6387,6.6383,6.6449,6.6445,6.6549,6.6535,6.6538,6.6535,6.6604,6.6597,6.6833,6.6863,6.6656,6.6658,6.666,0,6.605,6.6114,6.6152,6.6189,6.621,6.627,6.6306,6.6296,6.6333,6.6376,6.6423,6.6481,6.6526,6.6622,6.6631,6.6681,6.6667,6.6747,6.6675,6.6677,6.6667,6.6663,6.6668,6.6761,6.6763,6.6765,6.6766,0,6.6237,6.6235,6.6289,6.6344,6.6387,6.6429,6.6466,6.6498,6.6491,6.6534,6.6596,6.6632,6.6701,6.6757,6.6805,6.682,6.6792,6.6789,6.6808,6.6813,6.6812,6.6812,6.6575,6.6784,6.6782,6.6781,6.678,6.6779,6.6371,6.6426,6.6461,6.6521,6.6549,6.6585,6.6635,6.6646,6.6699,6.6755,6.6745,6.6814,6.6844,6.6906,6.6926,6.6978,6.6949,6.6976,6.6983,6.6989,6.6997,6.6805,6.6987,6.6986,6.6986,6.6985,6.6985,0,6.6555,6.6576,6.6631,6.6686,6.6733,6.6705,6.6745,6.6785,6.6847,6.6878,6.6924,6.6994,6.7048,6.7061,6.7112,6.7151,6.7139,6.7165,6.7161,6.7165,6.702,6.6999,6.7173,6.7173,6.7173,6.7173,6.7173,6.7173,6.6656,6.6747,6.6749,6.6851,6.687,6.694,6.6965,6.6996,6.7022,6.7102,6.7148,6.7157,6.718,6.7233,6.728,6.7282,6.7302,6.7332,6.7329,6.7194,6.7175,6.7157,6.7136,6.7337,6.7337,6.7469,6.747,6.7471]}]]